Location: Ahausen
(50.4985°N, 8.2722°E)
Time: 16:07:36
(UTC+00:00)

CZ-2C R/B - Pass Details

Date: 18 September 2020
Orbit: 704 x 907 km, 98.1° (Epoch: 22 October)

Event Time Altitude Azimuth Distance (km) Brightness Sun altitude
Rises 17:57:14 0° 158° (SSE) 3,256 5.9 -4.6°
Reaches altitude 10° 17:59:30 10° 156° (SSE) 2,361 5.2 -5.0°
Maximum altitude 18:04:43 74° 73° (ENE) 865 3.2 -5.8°
Drops below altitude 10° 18:10:17 10° 349° (N) 2,510 6.0 -6.7°
Sets 18:12:44 0° 348° (NNW) 3,477 6.7 -7.1°
